Location: *
(47.6569°N, 7.4256°E)
Time: 06:55:40
(UTC+00:00)

Meteor 1-13 Rocket - Pass Details

Date: 14 December 2019
Orbit: 830 x 913 km, 81.3° (Epoch: 20 January)

Event Time Altitude Azimuth Distance (km) Brightness Sun altitude
Rises 17:52:51 0° 172° (S) 3,415 7.4 -21.5°
Reaches altitude 10° 17:55:21 10° 167° (SSE) 2,471 6.6 -21.9°
Enters shadow 18:00:17 48° 108° (ESE) 1,097 4.4 -22.7°
